Weather Roundup
Issued by NWS

Home | Current Version | Previous Version | Graphics & Text | Print | Product List | Glossary Off
Versions: 1 2 3 4 5 6 7 8 9 10 11 12 13 14 15 16 17 18 19 20 21 22 23 24 25 26 27 28 29 30 31 32 33 34 35 36 37 38 39 40 41 42 43 44 45 46 47 48 49 50

000
NZUS93 KARX 262010
HRRWXR

CURRENT HOURLY OBSERVATIONS ACROSS
MUCH OF THE UPPER MISSISSIPPI VALLEY
NATIONAL WEATHER SERVICE LA CROSSE WI
200 PM CST THU FEB 26 2015


...SOUTHEAST MINNESOTA...


CITY           SKY/WX    TMP DP  RH WIND       PRES   REMARKS
ROCHESTER      MOSUNNY    5  -7  57 N15       30.36F WCI -13
ROCHESTER/MAYO FAIR       6  -8  51 NW12G17   30.38F WCI  -9
WINONA         CLOUDY    12   0  57 NW12      30.42S WCI  -2
AUSTIN         SUNNY      3  -8  60 NW14      30.39S WCI -15
ALBERT LEA     SUNNY      3  -6  66 NW9       30.40S WCI -11
DODGE CENTER   MOSUNNY    5  -6  61 NW12      30.37S WCI -11
PRESTON        PTSUNNY    5  -6  61 NW16      30.36S WCI -14
OWATONNA       SUNNY      5  -8  56 W14       30.41F WCI -12
FARIBAULT      SUNNY      7  -6  56 W9        30.42F WCI  -7
$$

...ELSEWHERE IN MINNESOTA...


CITY           SKY/WX    TMP DP  RH WIND       PRES   REMARKS
MINNEAPOLIS    MOSUNNY   10  -8  44 VRB7      30.44F WCI  -1
INTNL FALLS    SUNNY      2 -14  47 W10       30.39F WCI -14
DULUTH         SUNNY      7 -11  43 NW12      30.32F WCI  -8
RED WING       SUNNY     10  -9  40 N7        30.42F WCI   0
REDWOOD FALLS  CLOUDY     4  -8  57 NW18      30.49F WCI -16
MANKATO        MOSUNNY    3  -8  60 NW14      30.45F WCI -15
FAIRMONT       CLOUDY     3  -6  66 NW15      30.43F WCI -15
$$

...SOUTHWEST WISCONSIN...


CITY           SKY/WX    TMP DP  RH WIND       PRES   REMARKS
LA CROSSE      PTSUNNY   14  -2  49 NW10      30.39S WCI   1
PRAIRIE DU CHI SUNNY     12  -8  40 NW9G17    30.37S WCI   0
BOSCOBEL       MIX PCPN  14  -5  42 NW10      30.36S WCI   1
LONE ROCK      SUNNY     13  -5  44 N7        30.34F WCI   3
PLATTEVILLE    SUNNY     11  -4  50 N10       30.30S WCI  -2
FORT MC COY    MOSUNNY   13  -4  46 NW8       30.35F WCI   1
CAMP DOUGLAS   MOSUNNY   14  -4  44 N10       30.32F WCI   1
VIROQUA        MOCLDY    10  -4  51 NW9G16    30.30F WCI  -3
WIS DELLS      MOSUNNY   11  -7  44 N5        30.29F WCI   3
$$

...ELSEWHERE IN WISCONSIN...


CITY           SKY/WX    TMP DP  RH WIND       PRES   REMARKS
MILWAUKEE      PTSUNNY   16  -1  47 NW8       30.27S WCI   5
MADISON        PTSUNNY   12  -5  46 NE10      30.30S WCI  -1
GREEN BAY      MOSUNNY   11  -1  58 NW13      30.31F WCI  -4
EAU CLAIRE     SUNNY      9  -8  46 N10       30.38F WCI  -5
BLACK RVR FLS  MOCLDY    11  -6  44 N10       30.36S WCI  -2
MEDFORD        PTSUNNY    8  -6  52 NW9       30.27S WCI  -5
WAUSAU         SUNNY      9  -7  48 NW13      30.27F WCI  -7
WIS RAPIDS     SUNNY      8  -8  48 NW10      30.33S WCI  -6
MARSHFIELD     MOSUNNY    9  -7  48 NW12      30.30S WCI  -6
RICE LAKE      SUNNY      8 -10  44 NW7       30.38F WCI  -3
$$

...NORTHEAST IOWA...


CITY           SKY/WX    TMP DP  RH WIND       PRES   REMARKS
DECORAH        SUNNY      7  -8  51 N15G21    30.34F WCI -11
MASON CITY     SUNNY      3  -5  69 NW16      30.42F WCI -16
CHARLES CITY   CLOUDY     5  -6  61 NW16      30.40S WCI -14
OELWEIN        SUNNY      5  -4  66 NW14      30.38S WCI -12
$$

...ELSEWHERE IN IOWA...


CITY           SKY/WX    TMP DP  RH WIND       PRES   REMARKS
DES MOINES     MOSUNNY   10  -2  58 NW17G24   30.45S WCI  -8
IOWA CITY      SUNNY     11  -2  56 NW17      30.40R WCI  -6
FORT DODGE     MOSUNNY    5  -6  61 NW9       30.46F WCI  -9
$$

...NORTHERN ILLINOIS...


CITY           SKY/WX    TMP DP  RH WIND       PRES   REMARKS
CHICAGO-OHARE  PTSUNNY   18   1  47 N14       30.24S WCI   4
CHICAGO-MIDWAY FLURRIES  20   9  62 N12       30.25R WCI   8
MOLINE         SUNNY     14   1  56 NW10      30.34R WCI   1
ROCKFORD       PTSUNNY   13  -1  54 N14       30.31R WCI  -2
PEORIA         CLOUDY    19   7  59 N10       30.29R WCI   7
$$

NOTE: "FAIR" INDICATES FEW OR NO CLOUDS BELOW 12,000 FEET WITH NO
SIGNIFICANT WEATHER AND/OR OBSTRUCTIONS TO VISIBILITY. WIND
SPEEDS ARE IN MILES-PER-HOUR.



USA.gov is the U.S. government's official web portal to all federal, state and local government web resources and services.